Вернуться в каталог

DELTA 1 DEB

АктивенSSO
NORAD 12178·DEBRIS·🇺🇸 United States

Запущен Mar 5, 1978 с Vandenberg Space Force Base

Loading…

Ближайшие Пролёты (ближайшие 24 часа)

TLE

СвежийSource: Space-Track

Эпоха: Sep 14, 2026, 09:35 UTC

1 12178U 78026T   26257.39946208  .00000260  00000-0  22520-3 0  9997
2 12178  99.3616 132.7719 0060559 281.7044 254.2359 13.94815381317527

Отслеживайте DELTA 1 DEB в реальном времени с AllMySat

Download on the App Store